SL-12 R/B(2), 15334

Orbit data source: Space-Track

SL-12 R/B(2), 15334 is space debris in LEO originally from a launch on Fri, 28 Sep 1984 UTC launched from the Tyuratam Missile And Space Complex (TTMTR). Debris objects in space refer to the collection of defunct objects orbiting the Earth. Examples of debris include non-operational satellites, rocket bodies, and fragments generated from explosions, collisions, or faulty payload assembly.

Loading next visibility...
Identifier
15334, 1984-106B
Orbit
LEO
Country
Flag of CISCIS
Related business
Manufacturer
NPO Energiya
Mission
Spacecraft
Bus & Motor
BLOK DM, Unknown motor
Mass
2,660 kg wet, 2,440 kg dry
Launch date (UTC)
1984-09-28 (41 years ago)
Launch vehicle
Unknown
Launch site
Tyuratam Missile And Space Complex (TTMTR)
Object type
Payload
Rocket body
Debris
Shape & HBR
Cyl, 3.1 m
Radar Cross Section
23.597 m², Large (>1 m²)

Expand to show TLE details & history
Last TLE update: 10 hours ago

TLE from 10 hours ago
0 SL-12 R/B(2)
1 15334U 84106B   25261.91313272  .00000328  00000-0  19219-3 0  9997
2 15334  71.0022 189.6907 0002899  10.0044 350.1136 14.15580088995515
Epoch: 2025-09-18T21:54Z
TLE epoch observation values (Epoch: 2025-09-18T21:54:54.667Z)
Latitude
-0.00001°
Longitude
-137.10499°
Altitude
840.679 km
Speed
7.434 km/s
True Right ascension
12h 38m 45s
True Declination
0° 00' 00"
Sunlit
Object was in daylight at epoch
Visualization orbit readout
Latitude
Unknown
Longitude
Unknown
Altitude
Unknown
Speed
Unknown
Apparent Right ascension
Unknown
Apparent Declination
Unknown
Sunlit
N/A
Visualization observer readout
Local Sidereal Time
00:31:58
Azimuth
Unknown
Elevation
Unknown
Doppler factor
Unknown
Orbital elements
Apogee altitude
840.356 km
Perigee altitude
836.172 km
Semi-major axis
7,216.401 km
Eccentricity
0.00029
Inclination
71.0022°
RAAN
189.6907°
Arg. of periapsis
10.0044°
True anomaly
350.10789°
Mean anomaly
350.1136°
Eccentric anomaly
350.11075°
Mean motion
3.54048 °/min
Orbital period
101.68 mins
BSTAR
0.00019219
Loading maneuver chart data...
Computing Atmospheric mass density...
Loading historical data...
Loading historical data...
Loading historical data...
Loading historical data...
Loading historical data...
Loading historical data...
Loading historical data...

Documentation

Showing up to 5 results
|